{"data":{"norad_id":55288,"intl_designator":"2023-010V","name":"STARLINK-5311","alt_names":[],"object_type":"PAYLOAD","status":"ACTIVE","operator":null,"country":"US","launch_date":"2023-01-19","launch_site_code":"AFWTR","launch_vehicle":null,"mission":null,"orbit_class":"UNKNOWN","rcs_meters":null,"size_class":null,"mass_kg":null,"dimensions":null,"purposes":["comms"],"wikipedia_slug":null,"has_3d_model":false,"image_url":null,"decayed_at":null,"tle_current":{"epoch":"2026-09-20T09:20:39.547968Z","epoch_age_seconds":102333,"freshness":"FRESH","line1":"1 55288U 23010V   26263.38934662  .00000717  00000+0  67859-4 0  9997","line2":"2 55288  69.9980 253.5318 0003727 268.2106  91.8626 14.98328613202430","mean_motion":14.98328613,"eccentricity":0.0003727,"inclination_deg":69.998,"raan_deg":253.5318,"arg_perigee_deg":268.2106,"mean_anomaly_deg":91.8626,"bstar":6.7859e-5,"rev_number":20243,"period_min":96.107088091763,"perigee_km":569.46984164178,"apogee_km":574.65051861985,"semimajor_km":6950.1971801308,"source":"CELESTRAK","updated_at":"2026-09-21T09:00:33.168493Z"}}}